Location: Noordwijk
(52.2400°N, 4.4500°E)
Time: 22:26:19
(UTC+00:00)

FO-29 - Pass Details

Date: 06 December 2022
Orbit: 799 x 1322 km, 98.5° (Epoch: 01 February)

Event Time Altitude Azimuth Distance (km) Brightness Sun altitude
Rises 19:11:09 0° 236° (SW) 4,309 13.5 -32.5°
Reaches altitude 10° 19:17:05 10° 271° (W) 3,289 13.1 -33.4°
Maximum altitude 19:18:46 11° 284° (WNW) 3,208 13.0 -33.7°
Drops below altitude 10° 19:20:25 10° 297° (WNW) 3,240 12.9 -33.9°
Sets 19:26:07 0° 333° (NNW) 4,092 13.2 -34.8°
